Photometre #140[NE_1.6] Ersa AOT

File : 20200924_140.hum

24/09/2020,06:01:51,TEMP=23.5,BA=5.60,STAT.A=Abs.,ExtBa=13.96
24/09/2020,06:05:23,TEMP=23.6,BA=5.60,STAT.A=Abs.,ExtBa=13.71
24/09/2020,06:09:30,TEMP=23.6,BA=5.60,STAT.A=Abs.,ExtBa=13.77
24/09/2020,06:14:25,TEMP=23.7,BA=5.48,STAT.A=Abs.,ExtBa=13.84
24/09/2020,06:20:19,TEMP=23.7,BA=5.60,STAT.A=Abs.,ExtBa=13.90
24/09/2020,06:27:37,TEMP=23.7,BA=5.60,STAT.A=Abs.,ExtBa=13.95
24/09/2020,06:36:51,TEMP=23.8,BA=5.60,STAT.B=Abs.,ExtBa=13.99
24/09/2020,06:41:17,TEMP=23.8,BA=5.60,STAT.A=Abs.,ExtBa=13.97
24/09/2020,06:46:13,TEMP=23.6,BA=5.60,STAT.A=Abs.,ExtBa=13.97
24/09/2020,06:51:49,TEMP=23.8,BA=5.60,STAT.A=Abs.,ExtBa=13.98
24/09/2020,06:58:10,TEMP=24.5,BA=5.60,STAT.A=Abs.,ExtBa=13.96
24/09/2020,07:05:28,TEMP=25.3,BA=5.56,STAT.C=Abs.,ExtBa=13.96
24/09/2020,07:13:59,TEMP=26.0,BA=5.60,STAT.A=Abs.,ExtBa=13.92
24/09/2020,07:24:02,TEMP=26.5,BA=5.60,STAT.A=Abs.,ExtBa=13.85
24/09/2020,07:36:07,TEMP=26.7,BA=5.60,STAT.A=Abs.,ExtBa=13.33
24/09/2020,07:51:01,TEMP=27.6,BA=5.60,STAT.A=Abs.,ExtBa=13.76
24/09/2020,08:10:01,TEMP=27.3,BA=5.60,STAT.B=Abs.,ExtBa=13.90
24/09/2020,08:14:55,TEMP=27.3,BA=5.52,STAT.F,ExtBa=13.30
24/09/2020,08:29:54,TEMP=27.2,BA=5.56,STAT.D=Abs.,ExtBa=13.62
24/09/2020,08:44:54,TEMP=27.9,BA=5.56,STAT.D=Abs.,ExtBa=13.60
24/09/2020,08:59:54,TEMP=28.5,BA=5.56,STAT.D=Abs.,ExtBa=13.91
24/09/2020,09:14:56,TEMP=28.5,BA=5.52,STAT.F,ExtBa=13.68
24/09/2020,09:29:54,TEMP=28.8,BA=5.44,STAT.D=Abs.,ExtBa=13.85
24/09/2020,09:44:54,TEMP=28.3,BA=5.52,STAT.D=Abs.,ExtBa=13.90
24/09/2020,09:59:54,TEMP=28.2,BA=5.52,STAT.D=Abs.,ExtBa=13.91
24/09/2020,10:14:56,TEMP=27.7,BA=5.52,STAT.F,ExtBa=13.97
24/09/2020,10:29:54,TEMP=28.1,BA=5.52,STAT.D=Abs.,ExtBa=13.97
24/09/2020,10:44:54,TEMP=28.0,BA=5.52,STAT.D=Abs.,ExtBa=13.97
24/09/2020,10:59:54,TEMP=28.1,BA=5.48,STAT.D=Abs.,ExtBa=13.97
24/09/2020,11:14:56,TEMP=28.3,BA=5.48,STAT.F,ExtBa=13.96
24/09/2020,11:29:54,TEMP=28.5,BA=5.48,STAT.D=Abs.,ExtBa=13.95
24/09/2020,11:44:54,TEMP=28.7,BA=5.48,STAT.D=Abs.,ExtBa=13.95
24/09/2020,11:59:54,TEMP=28.6,BA=5.48,STAT.D=Abs.,ExtBa=13.95
24/09/2020,12:14:56,TEMP=28.7,BA=5.48,STAT.F,ExtBa=13.92
24/09/2020,12:29:54,TEMP=28.9,BA=5.48,STAT.D=Abs.,ExtBa=13.88
24/09/2020,12:44:54,TEMP=28.9,BA=5.48,STAT.D=Abs.,ExtBa=13.86
24/09/2020,12:59:54,TEMP=29.5,BA=5.48,STAT.D=Abs.,ExtBa=13.69
24/09/2020,13:14:56,TEMP=27.5,BA=5.48,STAT.F,ExtBa=13.87
24/09/2020,13:29:54,TEMP=27.4,BA=5.52,STAT.D=Abs.,ExtBa=13.92
24/09/2020,13:44:54,TEMP=26.5,BA=5.52,STAT.D=Abs.,ExtBa=13.93
24/09/2020,13:59:54,TEMP=26.7,BA=5.52,STAT.D=Abs.,ExtBa=13.91
24/09/2020,14:14:55,TEMP=26.6,BA=5.56,STAT.F,ExtBa=13.92
24/09/2020,14:19:49,TEMP=26.3,BA=5.56,STAT.B=Abs.,ExtBa=13.90
24/09/2020,14:38:49,TEMP=25.5,BA=5.56,STAT.A=Abs.,ExtBa=13.92
24/09/2020,14:53:43,TEMP=24.6,BA=5.56,STAT.A=Abs.,ExtBa=13.92
24/09/2020,15:05:28,TEMP=24.4,BA=5.60,STAT.h
24/09/2020,15:15:51,TEMP=22.8,BA=5.60,STAT.A=Abs.,ExtBa=13.92
24/09/2020,15:24:22,TEMP=23.2,BA=5.60,STAT.C=Abs.,ExtBa=13.92
24/09/2020,15:31:40,TEMP=23.6,BA=5.60,STAT.A=Abs.,ExtBa=13.92
24/09/2020,15:38:01,TEMP=24.0,BA=5.60,STAT.A=Abs.,ExtBa=13.87
24/09/2020,15:43:37,TEMP=24.1,BA=5.56,STAT.A=Abs.,ExtBa=13.89
24/09/2020,15:48:32,TEMP=24.2,BA=5.56,STAT.A=Abs.,ExtBa=13.91
24/09/2020,15:52:58,TEMP=24.3,BA=5.44,STAT.B=Abs.,ExtBa=13.92
24/09/2020,16:02:11,TEMP=24.5,BA=5.60,STAT.A=Abs.,ExtBa=13.93
24/09/2020,16:09:30,TEMP=24.5,BA=5.60,STAT.A=Abs.,ExtBa=13.92
24/09/2020,16:15:24,TEMP=24.5,BA=5.48,STAT.A=Abs.,ExtBa=13.91